• In Germany
  • List of Countries
  • For 7 days
  • Water Temperature
  • Satellite Maps
  • Weather Map
  • Weather Widgets
  • user-avatar
    Login

    Hourly Weather Grevenmacher

    Today, 24 September, Sunday

    Time Temperature Precipitation Wind Pressure Humidity
    00:00 +11°C° 0 mm 1 mps 740 mmHg 93%
    01:00 +11°C° 0 mm 1 mps 740 mmHg 93%
    02:00 +10°C° 0 mm 1 mps 740 mmHg 93%
    03:00 +10°C° 0 mm 1 mps 740 mmHg 93%
    04:00 +10°C° 0 mm 1 mps 740 mmHg 93%
    05:00 +10°C° 0 mm 1 mps 740 mmHg 93%
    06:00 +10°C° 0 mm 1 mps 740 mmHg 94%
    07:00 +12°C° 0 mm 1 mps 741 mmHg 87%
    08:00 +14°C° 0 mm 1 mps 741 mmHg 80%
    09:00 +16°C° 0 mm 1 mps 741 mmHg 73%
    10:00 +19°C° 0 mm 1 mps 741 mmHg 68%
    11:00 +20°C° 0 mm 1 mps 741 mmHg 63%
    12:00 +21°C° 0 mm 1 mps 741 mmHg 57%
    13:00 +21°C° 0 mm 1 mps 741 mmHg 57%
    14:00 +21°C° 0 mm 1 mps 741 mmHg 57%
    15:00 +21°C° 0 mm 1 mps 740 mmHg 56%
    16:00 +19°C° 0 mm 1 mps 740 mmHg 64%
    17:00 +16°C° 0 mm 1 mps 740 mmHg 71%
    18:00 +14°C° 0 mm 1 mps 740 mmHg 78%
    19:00 +13°C° 0 mm 1 mps 740 mmHg 81%
    20:00 +13°C° 0 mm 1 mps 740 mmHg 84%
    21:00 +12°C° 0 mm 1 mps 741 mmHg 87%
    22:00 +12°C° 0 mm 1 mps 740 mmHg 88%
    23:00 +12°C° 0 mm 1 mps 740 mmHg 89%

    Tomorrow, 25 September, Monday

    Time Temperature Precipitation Wind Pressure Humidity
    00:00 +11°C° 0 mm 1 mps 740 mmHg 90%
    01:00 +11°C° 0 mm 1 mps 740 mmHg 91%
    02:00 +11°C° 0 mm 1 mps 739 mmHg 91%
    03:00 +10°C° 0 mm 1 mps 739 mmHg 92%
    04:00 +10°C° 0 mm 1 mps 739 mmHg 92%
    05:00 +10°C° 0 mm 1 mps 739 mmHg 92%
    06:00 +10°C° 0 mm 1 mps 739 mmHg 92%
    07:00 +12°C° 0 mm 1 mps 739 mmHg 85%
    08:00 +14°C° 0 mm 1 mps 739 mmHg 78%
    09:00 +18°C° 0 mm 1 mps 739 mmHg 71%
    10:00 +19°C° 0 mm 1 mps 739 mmHg 67%
    11:00 +20°C° 0 mm 1 mps 739 mmHg 63%
    12:00 +21°C° 0 mm 1 mps 738 mmHg 58%
    13:00 +20°C° 0.1 mm 1 mps 738 mmHg 60%
    14:00 +20°C° 0.1 mm 1 mps 738 mmHg 62%
    15:00 +20°C° 0.1 mm 1 mps 738 mmHg 63%
    16:00 +18°C° 0.1 mm 1 mps 738 mmHg 71%
    17:00 +15°C° 0.1 mm 1 mps 738 mmHg 78%
    18:00 +14°C° 0.1 mm 1 mps 738 mmHg 86%
    19:00 +13°C° 0.1 mm 1 mps 738 mmHg 87%
    20:00 +13°C° 0.1 mm 1 mps 738 mmHg 88%
    21:00 +12°C° 0.1 mm 1 mps 738 mmHg 90%
    22:00 +12°C° 0 mm 1 mps 738 mmHg 90%
    23:00 +11°C° 0 mm 0 mps 738 mmHg 91%

    Day after tomorrow, 26 September, Tuesday

    Time Temperature Precipitation Wind Pressure Humidity
    00:00 +10°C° 0 mm 0 mps 738 mmHg 92%
    01:00 +10°C° 0 mm 0 mps 738 mmHg 92%
    02:00 +10°C° 0 mm 0 mps 738 mmHg 93%
    03:00 +9°C° 0 mm 0 mps 738 mmHg 93%
    04:00 +9°C° 0 mm 0 mps 738 mmHg 93%
    05:00 +9°C° 0 mm 0 mps 739 mmHg 93%
    06:00 +9°C° 0 mm 0 mps 739 mmHg 93%
    07:00 +11°C° 0 mm 0 mps 739 mmHg 88%
    08:00 +13°C° 0 mm 0 mps 739 mmHg 82%
    09:00 +15°C° 0 mm 0 mps 740 mmHg 77%
    10:00 +18°C° 0 mm 1 mps 740 mmHg 74%
    11:00 +19°C° 0 mm 1 mps 740 mmHg 70%
    12:00 +19°C° 0 mm 1 mps 740 mmHg 67%
    13:00 +19°C° 0.1 mm 1 mps 740 mmHg 67%
    14:00 +19°C° 0.1 mm 1 mps 740 mmHg 68%
    15:00 +19°C° 0.1 mm 1 mps 740 mmHg 68%
    16:00 +18°C° 0 mm 1 mps 740 mmHg 75%
    17:00 +14°C° 0 mm 0 mps 740 mmHg 81%
    18:00 +13°C° 0 mm 0 mps 741 mmHg 88%
    19:00 +12°C° 0 mm 0 mps 741 mmHg 89%
    20:00 +12°C° 0 mm 0 mps 741 mmHg 90%
    21:00 +11°C° 0 mm 0 mps 741 mmHg 91%
    22:00 +11°C° 0 mm 0 mps 741 mmHg 92%
    23:00 +11°C° 0 mm 0 mps 741 mmHg 92%

    27 September, Wednesday

    Time Temperature Precipitation Wind Pressure Humidity
    00:00 +10°C° 0 mm 0 mps 741 mmHg 93%
    01:00 +10°C° 0 mm 0 mps 741 mmHg 93%
    02:00 +10°C° 0 mm 0 mps 741 mmHg 94%
    03:00 +10°C° 0 mm 0 mps 741 mmHg 94%
    04:00 +10°C° 0 mm 0 mps 741 mmHg 94%
    05:00 +10°C° 0 mm 0 mps 742 mmHg 94%
    06:00 +10°C° 0 mm 0 mps 742 mmHg 95%
    07:00 +13°C° 0 mm 1 mps 742 mmHg 89%
    08:00 +15°C° 0 mm 1 mps 742 mmHg 84%
    09:00 +18°C° 0 mm 1 mps 743 mmHg 79%
    10:00 +19°C° 0 mm 1 mps 742 mmHg 74%
    11:00 +19°C° 0 mm 2 mps 742 mmHg 69%
    12:00 +20°C° 0 mm 2 mps 742 mmHg 64%
    13:00 +20°C° 0 mm 2 mps 742 mmHg 65%
    14:00 +20°C° 0 mm 2 mps 742 mmHg 65%
    15:00 +20°C° 0 mm 2 mps 742 mmHg 65%
    16:00 +19°C° 0 mm 1 mps 742 mmHg 72%
    17:00 +18°C° 0 mm 1 mps 742 mmHg 79%
    18:00 +15°C° 0 mm 1 mps 741 mmHg 86%
    19:00 +14°C° 0 mm 1 mps 742 mmHg 87%
    20:00 +14°C° 0 mm 1 mps 742 mmHg 89%
    21:00 +14°C° 0 mm 1 mps 742 mmHg 90%
    22:00 +13°C° 0 mm 1 mps 742 mmHg 91%
    23:00 +13°C° 0 mm 1 mps 742 mmHg 92%

    28 September, Thursday

    Time Temperature Precipitation Wind Pressure Humidity
    00:00 +13°C° 0 mm 1 mps 742 mmHg 92%
    01:00 +13°C° 0 mm 1 mps 742 mmHg 93%
    02:00 +12°C° 0 mm 1 mps 741 mmHg 93%
    03:00 +12°C° 0 mm 1 mps 741 mmHg 93%
    04:00 +12°C° 0 mm 1 mps 742 mmHg 94%
    05:00 +12°C° 0 mm 1 mps 742 mmHg 94%
    06:00 +12°C° 0 mm 1 mps 742 mmHg 94%
    07:00 +13°C° 0 mm 1 mps 742 mmHg 90%
    08:00 +15°C° 0 mm 1 mps 742 mmHg 86%
    09:00 +16°C° 0 mm 1 mps 743 mmHg 82%
    10:00 +18°C° 0 mm 1 mps 743 mmHg 80%
    11:00 +18°C° 0 mm 1 mps 743 mmHg 79%
    12:00 +19°C° 0 mm 1 mps 743 mmHg 77%
    13:00 +19°C° 0 mm 1 mps 743 mmHg 77%
    14:00 +19°C° 0 mm 1 mps 742 mmHg 77%
    15:00 +19°C° 0 mm 1 mps 742 mmHg 76%
    16:00 +18°C° 0 mm 1 mps 742 mmHg 79%
    17:00 +16°C° 0 mm 1 mps 743 mmHg 82%
    18:00 +15°C° 0 mm 1 mps 743 mmHg 85%
    19:00 +15°C° 0 mm 1 mps 743 mmHg 86%
    20:00 +15°C° 0 mm 1 mps 743 mmHg 86%
    21:00 +15°C° 0 mm 1 mps 743 mmHg 86%
    22:00 +14°C° 0 mm 1 mps 743 mmHg 88%
    23:00 +14°C° 0 mm 1 mps 743 mmHg 89%

    29 September, Friday

    Time Temperature Precipitation Wind Pressure Humidity
    00:00 +14°C° 0 mm 1 mps 743 mmHg 90%
    01:00 +13°C° 0 mm 1 mps 743 mmHg 90%
    02:00 +13°C° 0 mm 1 mps 743 mmHg 91%
    03:00 +13°C° 0 mm 1 mps 743 mmHg 91%
    04:00 +13°C° 0 mm 1 mps 743 mmHg 91%
    05:00 +12°C° 0 mm 1 mps 743 mmHg 91%
    06:00 +12°C° 0 mm 1 mps 743 mmHg 92%
    07:00 +14°C° 0 mm 1 mps 743 mmHg 85%
    08:00 +16°C° 0 mm 1 mps 743 mmHg 78%
    09:00 +18°C° 0 mm 2 mps 743 mmHg 71%
    10:00 +20°C° 0 mm 2 mps 742 mmHg 67%
    11:00 +21°C° 0 mm 2 mps 742 mmHg 63%
    12:00 +23°C° 0 mm 2 mps 742 mmHg 59%
    13:00 +23°C° 0 mm 2 mps 741 mmHg 60%
    14:00 +23°C° 0 mm 2 mps 741 mmHg 60%
    15:00 +23°C° 0 mm 2 mps 741 mmHg 61%
    16:00 +20°C° 0 mm 2 mps 740 mmHg 68%
    17:00 +19°C° 0 mm 1 mps 740 mmHg 74%
    18:00 +18°C° 0 mm 1 mps 740 mmHg 80%
    19:00 +16°C° 0 mm 1 mps 740 mmHg 82%
    20:00 +15°C° 0 mm 1 mps 740 mmHg 83%
    21:00 +15°C° 0 mm 1 mps 739 mmHg 85%
    22:00 +15°C° 0 mm 1 mps 739 mmHg 85%
    23:00 +14°C° 0 mm 1 mps 739 mmHg 86%
    Show more